Universal City, TX

11:39 PM CDT on September 26, 2016 (GMT -0500)
Randolph Air Force Base

Weather History for KRND - November, 2013

Change the Weather History Date:

Saturday, November 2, 2013

  Actual Average Record
Temperature  
Mean Temperature 62 °F -  
Max Temperature 73 °F 72 °F 87 °F (2001)
Min Temperature 50 °F 53 °F 39 °F (1999)
Degree Days  
Heating Degree Days 4    
Growing Degree Days 12 (Base 50)    
Moisture  
Dew Point 37 °F    
Average Humidity 42    
Maximum Humidity 77    
Minimum Humidity 20    
Precipitation  
Precipitation 0.00 in - - ()
Sea Level Pressure  
Sea Level Pressure 30.21 in    
Wind  
Wind Speed 10 mph (North)    
Max Wind Speed 16 mph    
Max Gust Speed 23 mph    
Visibility 10 miles    
Events      
Averages and records for this station are not official NWS values.
T = Trace of Precipitation, MM = Missing Value Source: NWS Daily Summary

Daily Weather History Graph

Daily Weather History Graph

Search for Another Location

Airport or City:

Trip Planner

Search our weather history database for the weather conditions in past years. The results will help you decide how hot, cold, wet, or windy it might be!

Date:

Astronomy

Nov. 02, 2013 Rise Set
Actual Time 7:47 AM CDT 6:45 PM CDT
Civil Twilight 7:22 AM CDT 7:10 PM CDT
Nautical Twilight 6:54 AM CDT 7:38 PM CDT
Astronomical Twilight 6:26 AM CDT 8:06 PM CDT
Moon 6:49 AM CDT (11/2) 6:16 PM CDT (11/2)
Length of Visible Light 11h 47m
Length of Day
10h 58m
Waning Crescent, 1% of the Moon is Illuminated
Nov 2
Waning Crescent
Nov 3
New
Nov 9
First Quarter
Nov 17
Full
Nov 25
Last Quarter

Hourly Weather History & Observations

Time (CDT) Temp. Dew Point Humidity Pressure Visibility Wind Dir Wind Speed Gust Speed Precip Events Conditions
12:58 AM 66.6 °F 41.5 °F 40% 30.07 in 10.0 mi North 10.4 mph 19.6 mph N/A   Clear
1:58 AM 66.0 °F 41.9 °F 41% 30.09 in 10.0 mi North 16.1 mph 23.0 mph N/A   Clear
2:58 AM 63.1 °F 42.4 °F 47% 30.12 in 10.0 mi North 10.4 mph - N/A   Clear
3:58 AM 61.3 °F 41.0 °F 47% 30.13 in 10.0 mi North 10.4 mph - N/A   Clear
4:58 AM 59.9 °F 40.6 °F 49% 30.17 in 10.0 mi North 9.2 mph - N/A   Clear
5:58 AM 56.1 °F 41.0 °F 57% 30.19 in 10.0 mi North 5.8 mph - N/A   Clear
6:58 AM 52.9 °F 41.2 °F 64% 30.21 in 10.0 mi NNW 6.9 mph - N/A   Clear
7:58 AM 51.1 °F 41.5 °F 70% 30.25 in 10.0 mi NNW 9.2 mph - N/A   Clear
8:58 AM 55.6 °F 41.4 °F 59% 30.27 in 10.0 mi NNW 9.2 mph - N/A   Clear
9:58 AM 63.3 °F 38.1 °F 39% 30.29 in 10.0 mi North 11.5 mph - N/A   Clear
10:58 AM 68.4 °F 34.0 °F 28% 30.30 in 10.0 mi NNE 11.5 mph - N/A   Clear
11:58 AM 70.5 °F 33.4 °F 26% 30.29 in 10.0 mi North 13.8 mph - N/A   Clear
12:58 PM 71.8 °F 30.7 °F 22% 30.27 in 10.0 mi North 10.4 mph 19.6 mph N/A   Clear
1:58 PM 73.0 °F 31.8 °F 22% 30.25 in 10.0 mi North 13.8 mph 18.4 mph N/A   Clear
2:32 PM 73.4 °F 30.2 °F 20% 30.24 in 10.0 mi North 15.0 mph 19.6 mph N/A   Clear
2:58 PM 73.6 °F 31.1 °F 21% 30.22 in 10.0 mi North 13.8 mph - N/A   Clear
3:58 PM 73.2 °F 33.1 °F 23% 30.19 in 10.0 mi North 13.8 mph 18.4 mph N/A   Clear
4:58 PM 73.2 °F 32.4 °F 22% 30.17 in 10.0 mi NNE 11.5 mph - N/A   Clear
5:58 PM 71.4 °F 32.2 °F 24% 30.18 in 10.0 mi NE 9.2 mph - N/A   Clear
6:58 PM 66.6 °F 32.9 °F 29% 30.20 in 10.0 mi NE 3.5 mph - N/A   Clear
7:58 PM 62.1 °F 36.1 °F 38% 30.21 in 10.0 mi ENE 2.3 mph - N/A   Clear
8:58 PM 59.0 °F 38.7 °F 47% 30.23 in 10.0 mi NE 2.3 mph - N/A   Clear
9:58 PM 55.0 °F 40.5 °F 58% 30.25 in 10.0 mi NE 1.2 mph - N/A   Clear
10:58 PM 50.7 °F 43.5 °F 76% 30.25 in 10.0 mi NNE 4.6 mph - N/A   Clear
11:58 PM 50.0 °F 43.2 °F 77% 30.22 in 10.0 mi North 2.3 mph - N/A   Clear